Location: Huberhof
(49.2050°N, 7.4980°E)
Time: 01:28:08
(UTC+00:00)

FALCON 9 DEB - Pass Details

Date: 29 October 2020
Orbit: 378 x 397 km, 53.0° (Epoch: 26 November)

Event Time Altitude Azimuth Distance (km) Brightness Sun altitude
Rises 18:26:14 0° 269° (W) 2,303 8.3 -22.2°
Reaches altitude 10° 18:28:23 10° 277° (W) 1,442 6.9 -22.6°
Enters shadow 18:30:46 37° 313° (NW) 639 4.3 -22.9°
